User: anonymous   Login
Location: Unspecified
(0.0000°N, 0.0000°E)
Time: 09:15:37
(UTC+02:00)
Language:

H-2A R/B - Orbit

View from above orbital plane
View from above orbital plane
View from above satellite
View from above satellite

Ground track
Ground track

The orbit data is extracted from the following two-line orbital elements,

1 26899U 01038B   16145.21741646  .00000534  00000-0  18300-3 0  9991
2 26899  27.8967 223.0755 7125097 290.5667  10.3810  2.47110693126886
Epoch (UTC): 24 May 2016 05:13:04
Eccentricity: 0.7125097
inclination: 27.8967°
perigee height: 266 km
apogee height: 33198 km
right ascension of ascending node: 223.0755°
argument of perigee: 290.5667°
revolutions per day: 2.47110693
mean anomaly at epoch: 10.3810°
orbit number at epoch: 12688

The dashed part of the orbit path shows where the satellite is in the earth's shadow,  

DLR